map of NKG home
NKG - Airport
Location
City:  Nanjing, Jiangsu, China
Name:Nanjing Lukou International Airport
ICAO:ZSNJ
IATA:NKG

Details
Type:Airport (Aerodrome, Airfield)
Use:Public/Civil, International (customs port of entry)
Latitude:3145'N (31.743)
Longitude:11852'E (118.863)
Elevation:48 ft (15 m)
Variation:5.61W (WMM2015 magnetic declination)
-0.07 annual change
Runways:2
Longest:11811 × 197 ft (3600 × 60 m), paved

Time
Time Zone:UTC+8
Local Time:

Weather
METAR:ZSNJ 251900Z 32001MPS 3000 R06/0150V0600 R07/0450VP2000 BR SCT024 02/02 Q1024 NOSIG

Related Locations
Nearby:
Farthest:SFN: 12426 mi / 19997 km
Santa F [Sauce Viejo Airport], S, AR

Find:

   beyond  
but within

Other Information
Maps:
NOTAMs:
Links:
Sources:

  
flag of China   

Sectional Chart

Flight Planning
at skyvector.com

Satellite Image

Google Maps Satellite view

 

Copyright © 2004-2018 Karl L. Swartz. All rights reserved.
The Great Circle Mapper name and logo are trademarks of the Great Circle Mapper.
All other trademarks mentioned herein belong to their respective owners.
Please see credits for attibutions and further copyright information.

  Follow gcmap on Facebook Follow gcmap on Twitter Follow gcmap on Google+ GCmap on LinkedIn

hCard Microformat

Geo Microformat